FW1629 Weather Reports


time (UTC)temp
C
wind
direction
speed
KPH
gust
KPH
rain 1hr
cm
rain 24hr
cm
rain mn
cm
humidity
%
barometer
mb
20260507114602 6 332 0.0 0.0 0.00 0.38 0.00 93 1003.8
20260507113035 5 5 0.0 0.0 0.00 0.38 0.00 93 1003.9
20260507111536 5 28 0.0 0.0 0.00 0.38 0.00 93 1003.8
20260507110034 5 7 0.0 0.0 0.00 0.38 0.00 93 1003.8
20260507104533 4 355 0.0 0.0 0.00 0.38 0.00 93 1003.6
20260507103033 4 31 0.0 0.0 0.00 0.38 0.00 93 1003.6
20260507101532 4 2 0.0 0.0 0.00 0.38 0.00 93 1003.7
20260507100034 4 335 0.0 0.0 0.00 0.38 0.00 93 1003.6
20260507094531 4 355 0.0 0.0 0.00 0.38 0.00 93 1003.7
20260507093030 3 348 0.0 0.0 0.00 0.38 0.00 93 1003.7
20260507091535 4 356 0.0 0.0 0.00 0.38 0.00 93 1003.7
20260507090036 4 353 0.0 0.0 0.00 0.38 0.00 93 1003.7
20260507084529 4 341 0.0 0.0 0.00 0.38 0.00 93 1003.7
20260507083032 4 332 0.0 3.2 0.00 0.38 0.00 93 1003.8
20260507081526 4 337 0.0 0.0 0.00 0.38 0.00 93 1003.6
20260507080025 4 336 0.0 0.0 0.00 0.38 0.00 93 1003.8
20260507074524 4 3 1.6 32.2 0.00 0.38 0.00 93 1003.9
20260507073022 4 9 22.5 38.6 0.00 0.38 0.00 93 1004.0
20260507071520 4 12 20.9 40.2 0.00 0.38 0.00 93 1003.9
20260507070021 4 342 14.5 27.4 0.00 0.38 0.00 93 1004.1
20260507064513 4 328 11.3 29.0 0.00 0.38 0.00 93 1004.3
20260507063011 4 20 1.6 24.1 0.00 0.38 0.00 93 1004.3
20260507061509 4 360 0.0 20.9 0.00 0.38 0.00 93 1004.3
20260507060007 5 19 0.0 0.0 0.00 0.38 0.00 93 1004.4
20260507054513 5 26 0.0 0.0 0.00 0.38 0.00 92 1004.5
20260507053004 5 31 0.0 3.2 0.00 0.38 0.00 92 1004.6
20260507051502 5 4 0.0 0.0 0.00 0.38 0.00 93 1004.7
20260507050100 5 322 0.0 0.0 0.00 0.38 0.00 92 1004.6
20260507044658 5 331 0.0 0.0 0.00 0.38 0.00 93 1004.7
20260507043055 5 351 0.0 0.0 0.00 0.38 0.00 93 1004.9
20260507041553 5 345 0.0 3.2 0.00 0.38 0.00 92 1005.1
20260507040054 5 337 0.0 0.0 0.00 0.38 0.00 93 1005.4
20260507034554 5 2 0.0 0.0 0.00 0.38 0.38 93 1005.5
20260507033051 5 341 0.0 0.0 0.00 0.38 0.38 92 1005.5
20260507031547 5 339 0.0 16.1 0.00 0.38 0.38 92 1005.7
20260507030046 6 349 0.0 0.0 0.00 0.38 0.38 93 1005.7
20260507024548 6 2 0.0 11.3 0.00 0.38 0.38 92 1005.6
20260507023049 6 358 0.0 0.0 0.00 0.38 0.38 92 1005.8
20260507021546 6 339 0.0 0.0 0.00 0.38 0.38 92 1005.9
20260507020104 6 27 0.0 0.0 0.00 0.38 0.38 92 1005.7
20260507014541 6 2 0.0 14.5 0.00 0.38 0.38 92 1005.9
20260507013050 6 2 0.0 0.0 0.00 0.38 0.38 92 1006.2
20260507011540 6 339 0.0 0.0 0.00 0.38 0.38 92 1006.4
20260507010039 6 333 0.0 0.0 0.00 0.38 0.38 91 1006.4
20260507004551 6 229 0.0 0.0 0.00 0.38 0.38 91 1006.5
20260507003044 6 229 0.0 0.0 0.00 0.38 0.38 91 1006.5
20260507001544 7 177 0.0 0.0 0.00 0.38 0.38 90 1006.3
20260507000038 7 177 0.0 0.0 0.00 0.38 0.38 90 1006.3
20260506234541 7 177 0.0 0.0 0.00 0.38 0.38 90 1006.4
20260506233039 7 177 0.0 0.0 0.00 0.38 0.38 89 1006.5
20260506231537 7 177 0.0 0.0 0.00 0.38 0.38 90 1006.4
20260506230045 7 177 0.0 0.0 0.00 0.38 0.38 90 1006.3
20260506224535 7 177 0.0 0.0 0.00 0.38 0.38 90 1006.3
20260506223042 7 177 0.0 0.0 0.00 0.38 0.38 90 1006.4
20260506221534 7 177 0.0 0.0 0.03 0.38 0.38 90 1006.5
20260506220034 7 177 0.0 0.0 0.03 0.38 0.38 90 1006.7
20260506214540 7 177 0.0 0.0 0.03 0.58 0.38 90 1006.7
20260506213037 7 174 0.0 0.0 0.03 0.58 0.38 90 1006.8
20260506211532 7 156 0.0 0.0 0.00 0.56 0.36 90 1006.6
20260506210033 7 160 0.0 19.3 0.00 0.56 0.36 90 1006.7
20260506204532 7 169 0.0 0.0 0.00 0.56 0.36 91 1006.8
20260506203033 6 169 0.0 1.6 0.00 0.56 0.36 92 1006.8
20260506201530 6 172 0.0 0.0 0.00 0.56 0.36 93 1007.0
20260506200031 6 161 1.6 19.3 0.00 0.56 0.36 93 1007.1
20260506194529 6 160 1.6 27.4 0.00 0.56 0.36 92 1007.1
20260506193028 7 251 8.0 33.8 0.03 0.56 0.36 93 1007.1
20260506191526 7 195 25.7 33.8 0.05 0.56 0.36 93 1007.3
20260506190026 6 200 24.1 37.0 0.05 0.56 0.36 93 1007.3
20260506184540 6 181 22.5 33.8 0.08 0.56 0.36 93 1007.4
20260506183036 6 196 25.7 37.0 0.08 0.53 0.33 93 1007.6
20260506181530 6 251 20.9 37.0 0.10 0.51 0.30 93 1007.8
20260506180027 6 251 19.3 29.0 0.13 0.51 0.30 93 1007.9
20260506174524 6 251 24.1 33.8 0.13 0.53 0.28 93 1007.9
20260506173019 6 205 29.0 43.5 0.10 0.51 0.25 93 1007.9
20260506171518 6 211 33.8 49.9 0.10 0.46 0.20 92 1008.0
20260506170016 6 205 38.6 46.7 0.10 0.43 0.18 92 1007.9
20260506164514 6 193 29.0 40.2 0.08 0.41 0.15 91 1008.0
20260506163013 6 197 33.8 43.5 0.08 0.41 0.15 91 1008.2
20260506161514 6 193 37.0 45.1 0.03 0.36 0.10 90 1008.4
20260506160013 7 196 40.2 46.7 0.00 0.33 0.08 89 1008.6
20260506154509 7 195 37.0 45.1 0.00 0.33 0.08 87 1008.6
20260506153012 7 185 35.4 48.3 0.00 0.33 0.08 85 1008.6
20260506151503 8 159 27.4 37.0 0.00 0.33 0.08 78 1008.4
20260506150003 8 137 0.0 0.0 0.00 0.33 0.08 77 1008.6
20260506144503 8 202 0.0 1.6 0.00 0.33 0.08 79 1008.6
20260506143102 8 145 0.0 1.6 0.00 0.33 0.08 79 1008.4
20260506143002 8 145 0.0 1.6 0.00 0.33 0.08 79 1008.4
20260506141559 8 319 0.0 24.1 0.00 0.33 0.08 82 1008.4
20260506140106 8 152 14.5 33.8 0.03 0.33 0.08 81 1008.3
20260506134557 8 156 17.7 41.8 0.03 0.33 0.08 80 1008.1
20260506133055 7 189 0.0 0.0 0.03 0.33 0.08 83 1008.2
20260506131555 7 168 0.0 1.6 0.05 0.33 0.08 84 1008.4
20260506130054 8 337 0.0 0.0 0.05 0.30 0.05 86 1008.1
20260506124551 8 329 0.0 0.0 0.05 0.30 0.05 85 1008.0
20260506123050 8 333 0.0 0.0 0.05 0.30 0.05 86 1008.2
20260506121550 8 9 0.0 0.0 0.03 0.28 0.03 86 1008.4
20260506120048 8 318 0.0 0.0 0.00 0.25 0.00 87 1008.4